H1 CPF 2 NER 2021 6 19 9 170 01 glonass137 H2 1705501 9137 42939 2021 6 19 0 0 0 2021 6 22 23 45 0 900 1 1 0 0 0 1 H9 10 0 59384 0.00000 0 -1270874.285 -11063269.169 -22934960.781 10 0 59384 900.00000 0 1439383.493 -11802810.281 -22554992.274 10 0 59384 1800.00000 0 4019516.077 -12711033.486 -21736447.304 10 0 59384 2700.00000 0 6410511.917 -13753227.012 -20495321.629 10 0 59384 3600.00000 0 8561417.657 -14885430.031 -18855822.976 10 0 59384 4500.00000 0 10431203.406 -16056282.431 -16849894.288 10 0 59384 5400.00000 0 11990211.685 -17209203.794 -14516587.014 10 0 59384 6300.00000 0 13221130.983 -18284809.751 -11901296.748 10 0 59384 7200.00000 0 14119454.876 -19223463.849 -9054876.390 10 0 59384 8100.00000 0 14693409.348 -19967857.348 -6032644.249 10 0 59384 9000.00000 0 14963353.216 -20465508.251 -2893306.605 10 0 59384 9900.00000 0 14960678.558 -20671074.291 302183.991 10 0 59384 10800.00000 0 14726259.048 -20548382.490 3491812.300 10 0 59384 11700.00000 0 14308512.910 -20072089.900 6613702.688 10 0 59384 12600.00000 0 13761163.135 -19228905.694 9607316.640 10 0 59384 13500.00000 0 13140790.161 -18018323.223 12414622.357 10 0 59384 14400.00000 0 12504280.530 -16452831.179 14981214.030 10 0 59384 15300.00000 0 11906279.129 -14557594.755 17257359.509 10 0 59384 16200.00000 0 11396752.126 -12369619.654 19198956.704 10 0 59384 17100.00000 0 11018762.833 -9936433.146 20768381.033 10 0 59384 18000.00000 0 10806553.599 -7314336.260 21935208.257 10 0 59384 18900.00000 0 10784013.961 -4566298.701 22676799.544 10 0 59384 19800.00000 0 10963599.175 -1759582.611 22978738.110 10 0 59384 20700.00000 0 11345744.527 1036807.540 22835109.372 10 0 59384 21600.00000 0 11918800.306 3754744.626 22248619.342 10 0 59384 22500.00000 0 12659490.801 6329560.906 21230548.743 10 0 59384 23400.00000 0 13533878.937 8702486.520 19800543.192 10 0 59384 24300.00000 0 14498797.109 10822844.303 17986242.675 10 0 59384 25200.00000 0 15503685.269 12649910.591 15822756.446 10 0 59384 26100.00000 0 16492760.050 14154365.060 13351992.403 10 0 59384 27000.00000 0 17407424.505 15319269.598 10621852.878 10 0 59384 27900.00000 0 18188817.536 16140535.499 7685311.441 10 0 59384 28800.00000 0 18780395.659 16626859.527 4599388.072 10 0 59384 29700.00000 0 19130437.906 16799131.695 1424042.211 10 0 59384 30600.00000 0 19194367.398 16689339.876 -1778994.771 10 0 59384 31500.00000 0 18936790.484 16339017.694 -4947424.534 10 0 59384 32400.00000 0 18333166.026 15797301.730 -8019600.116 10 0 59384 33300.00000 0 17371032.837 15118680.749 -10935733.108 10 0 59384 34200.00000 0 16050742.045 14360532.882 -13639065.151 10 0 59384 35100.00000 0 14385662.058 13580555.819 -16076980.100 10 0 59384 36000.00000 0 12401846.250 12834199.536 -18202034.427 10 0 59384 36900.00000 0 10137176.320 12172210.917 -19972885.187 10 0 59384 37800.00000 0 7640016.438 11638394.706 -21355097.177 10 0 59384 38700.00000 0 4967433.896 11267685.815 -22321813.533 10 0 59384 39600.00000 0 2183060.299 11084614.590 -22854276.804 10 0 59384 40500.00000 0 -645317.785 11102229.814 -22942190.699 10 0 59384 41400.00000 0 -3448338.637 11321524.644 -22583915.893 10 0 59384 42300.00000 0 -6157708.428 11731389.379 -21786496.507 10 0 59384 43200.00000 0 -8708798.014 12309092.569 -20565517.198 10 0 59384 44100.00000 0 -11043086.014 13021269.726 -18944793.985 10 0 59384 45000.00000 0 -13110347.203 13825377.482 -16955905.169 10 0 59384 45900.00000 0 -14870496.156 14671551.409 -14637571.709 10 0 59384 46800.00000 0 -16295010.473 15504788.797 -12034899.287 10 0 59384 47700.00000 0 -17367875.586 16267363.956 -9198497.059 10 0 59384 48600.00000 0 -18086013.234 16901373.897 -6183490.439 10 0 59384 49500.00000 0 -18459177.381 17351306.757 -3048447.290 10 0 59384 50400.00000 0 -18509323.559 17566524.456 145761.223 10 0 59384 51300.00000 0 -18269479.782 17503554.767 3337142.789 10 0 59384 52200.00000 0 -17782167.943 17128096.071 6463785.982 10 0 59384 53100.00000 0 -17097443.279 16416650.284 9465058.617 10 0 59384 54000.00000 0 -16270635.338 15357715.105 12282779.305 10 0 59384 54900.00000 0 -15359886.086 13952485.262 14862339.728 10 0 59384 55800.00000 0 -14423588.937 12215033.007 17153756.270 10 0 59384 56700.00000 0 -13517836.333 10171959.763 19112631.288 10 0 59384 57600.00000 0 -12693982.754 7861532.660 20701006.227 10 0 59384 58500.00000 0 -11996425.021 5332341.083 21888090.798 10 0 59384 59400.00000 0 -11460692.427 2641527.908 22650855.003 10 0 59384 60300.00000 0 -11111926.269 -147332.474 22974473.170 10 0 59384 61200.00000 0 -10963812.154 -2966622.645 22852611.855 10 0 59384 62100.00000 0 -11018009.667 -5747239.688 22287556.181 10 0 59384 63000.00000 0 -11264103.423 -8421217.223 21290171.962 10 0 59384 63900.00000 0 -11680077.964 -10924304.455 19879703.821 10 0 59384 64800.00000 0 -12233297.193 -13198396.444 18083412.393 10 0 59384 65700.00000 0 -12881947.983 -15193715.524 15936056.569 10 0 59384 66600.00000 0 -13576888.075 -16870653.664 13479229.747 10 0 59384 67500.00000 0 -14263821.205 -18201199.420 10760561.825 10 0 59384 68400.00000 0 -14885708.296 -19169889.996 7832801.455 10 0 59384 69300.00000 0 -15385313.196 -19774248.583 4752795.751 10 0 59384 70200.00000 0 -15707775.259 -20024688.592 1580386.892 10 0 59384 71100.00000 0 -15803099.470 -19943888.835 -1622752.973 10 0 59384 72000.00000 0 -15628457.904 -19565666.013 -4794325.394 10 0 59384 72900.00000 0 -15150203.924 -18933392.340 -7872623.861 10 0 59384 73800.00000 0 -14345512.511 -18098025.520 -10797742.072 10 0 59384 74700.00000 0 -13203575.906 -17115834.863 -13512747.690 10 0 59384 75600.00000 0 -11726302.511 -16045920.334 -15964797.884 10 0 59384 76500.00000 0 -9928488.143 -14947630.089 -18106174.175 10 0 59384 77400.00000 0 -7837451.174 -13877986.264 -19895215.781 10 0 59384 78300.00000 0 -5492145.793 -12889228.292 -21297133.035 10 0 59384 79200.00000 0 -2941789.639 -12026577.743 -22284684.944 10 0 59384 80100.00000 0 -244062.649 -11326319.087 -22838707.826 10 0 59384 81000.00000 0 2537048.208 -10814277.142 -22948485.065 10 0 59384 81900.00000 0 5333668.864 -10504754.935 -22611951.197 10 0 59384 82800.00000 0 8076622.201 -10399976.167 -21835726.778 10 0 59384 83700.00000 0 10698069.072 -10490054.979 -20634983.793 10 0 59384 84600.00000 0 13134096.875 -10753493.497 -19033144.583 10 0 59384 85500.00000 0 15327148.413 -11158185.299 -17061420.444 10 0 59385 0.00000 0 17228190.723 -11662881.694 -14758199.200 10 0 59385 900.00000 0 18798534.277 -12219058.181 -12168293.484 10 0 59385 1800.00000 0 20011228.237 -12773101.714 -9342065.459 10 0 59385 2700.00000 0 20851973.664 -13268725.699 -6334444.090 10 0 59385 3600.00000 0 21319519.374 -13649510.537 -3203855.130 10 0 59385 4500.00000 0 21425524.148 -13861461.842 -11084.609 10 0 59385 5400.00000 0 21193893.172 -13855478.150 3181901.776 10 0 59385 6300.00000 0 20659617.798 -13589623.724 6313160.284 10 0 59385 7200.00000 0 19867168.625 -13031110.432 9321968.230 10 0 59385 8100.00000 0 18868510.402 -12157905.007 12149997.385 10 0 59385 9000.00000 0 17720822.845 -10959893.792 14742439.181 10 0 59385 9900.00000 0 16484023.460 -9439555.690 17049060.267 10 0 59385 10800.00000 0 15218196.367 -7612114.544 19025168.635 10 0 59385 11700.00000 0 13981034.690 -5505163.756 20632472.400 10 0 59385 12600.00000 0 12825403.214 -3157777.885 21839815.369 10 0 59385 13500.00000 0 11797122.717 -619146.963 22623776.027 10 0 59385 14400.00000 0 10933067.987 2053211.079 22969119.024 10 0 59385 15300.00000 0 10259658.470 4795587.137 22869090.849 10 0 59385 16200.00000 0 9791804.166 7540479.754 22325554.164 10 0 59385 17100.00000 0 9532350.560 10219158.154 21348957.991 10 0 59385 18000.00000 0 9472045.798 12764284.524 19958143.824 10 0 59385 18900.00000 0 9590031.636 15112488.000 18179990.602 10 0 59385 19800.00000 0 9854837.925 17206784.408 16048904.379 10 0 59385 20700.00000 0 10225839.346 18998741.674 13606161.470 10 0 59385 21600.00000 0 10655113.573 20450301.073 10899116.702 10 0 59385 22500.00000 0 11089622.928 21535178.357 7980291.154 10 0 59385 23400.00000 0 11473627.667 22239786.001 4906356.427 10 0 59385 24300.00000 0 11751228.768 22563637.714 1737034.831 10 0 59385 25200.00000 0 11868932.251 22519218.005 -1466063.221 10 0 59385 26100.00000 0 11778125.675 22131322.100 -4640641.538 10 0 59385 27000.00000 0 11437360.890 21435894.060 -7724936.226 10 0 59385 27900.00000 0 10814345.014 20478412.225 -10658925.011 10 0 59385 28800.00000 0 9887553.936 19311890.476 -13385503.217 10 0 59385 29700.00000 0 8647398.552 17994580.185 -15851602.697 10 0 59385 30600.00000 0 7096892.938 16587470.376 -18009231.117 10 0 59385 31500.00000 0 5251794.900 15151692.194 -19816410.728 10 0 59385 32400.00000 0 3140211.708 13745937.572 -21237998.059 10 0 59385 33300.00000 0 801686.433 12424001.207 -22246368.479 10 0 59385 34200.00000 0 -1714197.630 11232549.415 -22821952.393 10 0 59385 35100.00000 0 -4349636.807 10209209.596 -22953612.970 10 0 59385 36000.00000 0 -7040775.743 9381060.151 -22638858.469 10 0 59385 36900.00000 0 -9720134.864 8763583.649 -21883885.443 10 0 59385 37800.00000 0 -12319195.866 8360126.314 -20703452.425 10 0 59385 38700.00000 0 -14771037.970 8161885.416 -19120586.930 10 0 59385 39600.00000 0 -17012915.501 8148423.961 -17166131.744 10 0 59385 40500.00000 0 -18988669.979 8288689.758 -14878139.632 10 0 59385 41400.00000 0 -20650876.857 8542494.776 -12301128.351 10 0 59385 42300.00000 0 -21962638.053 8862391.343 -9485210.747 10 0 59385 43200.00000 0 -22898946.424 9195865.070 -6485117.037 10 0 59385 44100.00000 0 -23447566.224 9487751.094 -3359128.497 10 0 59385 45000.00000 0 -23609393.851 9682770.954 -167943.641 10 0 59385 45900.00000 0 -23398285.078 9728082.440 3026500.851 10 0 59385 46800.00000 0 -22840357.264 9575734.302 6162231.348 10 0 59385 47700.00000 0 -21972796.933 9184921.973 9178437.098 10 0 59385 48600.00000 0 -20842223.807 8523948.872 12016645.460 10 0 59385 49500.00000 0 -19502680.604 7571810.441 14621850.005 10 0 59385 50400.00000 0 -18013333.377 6319333.930 16943569.934 10 0 59385 51300.00000 0 -16435978.861 4769825.596 18936820.990 10 0 59385 52200.00000 0 -14832462.984 2939197.450 20562979.829 10 0 59385 53100.00000 0 -13262118.081 855567.365 21790525.896 10 0 59385 54000.00000 0 -11779325.225 -1441651.988 22595647.336 10 0 59385 54900.00000 0 -10431302.650 -3903138.875 22962699.872 10 0 59385 55800.00000 0 -9256211.817 -6471466.758 22884510.255 10 0 59385 56700.00000 0 -8281659.364 -9083253.845 22362518.572 10 0 59385 57600.00000 0 -7523656.874 -11671570.333 21406756.511 10 0 59385 58500.00000 0 -6986081.503 -14168504.898 20035661.479 10 0 59385 59400.00000 0 -6660659.804 -16507785.210 18275729.379 10 0 59385 60300.00000 0 -6527475.390 -18627344.639 16161011.721 10 0 59385 61200.00000 0 -6555979.292 -20471728.960 13732465.721 10 0 59385 62100.00000 0 -6706460.756 -21994243.190 11037168.865 10 0 59385 63000.00000 0 -6931916.699 -23158748.961 8127412.170 10 0 59385 63900.00000 0 -7180241.104 -23941036.960 5059689.110 10 0 59385 64800.00000 0 -7396641.684 -24329716.605 1893599.414 10 0 59385 65700.00000 0 -7526181.203 -24326585.099 -1309311.005 10 0 59385 66600.00000 0 -7516335.164 -23946459.921 -4486751.007 10 0 59385 67500.00000 0 -7319456.547 -23216481.499 -7576902.136 10 0 59385 68400.00000 0 -6895041.892 -22174915.306 -10519628.953 10 0 59385 69300.00000 0 -6211701.399 -20869503.953 -13257657.233 10 0 59385 70200.00000 0 -5248748.130 -19355439.009 -15737696.195 10 0 59385 71100.00000 0 -3997337.576 -17693038.424 -17911482.170 10 0 59385 72000.00000 0 -2461108.086 -15945227.869 -19736722.710 10 0 59385 72900.00000 0 -656293.765 -14174932.468 -21177922.464 10 0 59385 73800.00000 0 1388696.094 -12442488.887 -22207074.655 10 0 59385 74700.00000 0 3634214.369 -10803186.716 -22804204.781 10 0 59385 75600.00000 0 6030791.845 -9305042.202 -22957756.309 10 0 59385 76500.00000 0 8520972.773 -7986897.300 -22664811.231 10 0 59385 77400.00000 0 11041494.070 -6876923.093 -21931141.624 10 0 59385 78300.00000 0 13525717.633 -5991589.323 -20771091.658 10 0 59385 79200.00000 0 15906214.715 -5335142.005 -19207292.673 10 0 59385 80100.00000 0 18117394.886 -4899609.708 -17270217.193 10 0 59385 81000.00000 0 20098070.301 -4665336.705 -14997580.802 10 0 59385 81900.00000 0 21793848.780 -4602019.064 -12433603.673 10 0 59385 82800.00000 0 23159256.233 -4670198.645 -9628146.391 10 0 59385 83700.00000 0 24159500.416 -4823150.677 -6635737.049 10 0 59385 84600.00000 0 24771803.089 -5009084.118 -3514508.790 10 0 59385 85500.00000 0 24986245.621 -5173560.964 -325068.767 10 0 59386 0.00000 0 24806093.720 -5262031.547 2870679.171 10 0 59386 900.00000 0 24247588.423 -5222377.866 6010735.413 10 0 59386 1800.00000 0 23339213.774 -5007358.059 9034204.626 10 0 59386 2700.00000 0 22120471.669 -4576846.893 11882472.937 10 0 59386 3600.00000 0 20640217.006 -3899779.315 14500338.792 10 0 59386 4500.00000 0 18954622.563 -2955713.736 16837076.178 10 0 59386 5400.00000 0 17124859.254 -1735949.464 18847410.296 10 0 59386 6300.00000 0 15214588.433 -244150.671 20492387.514 10 0 59386 7200.00000 0 13287370.601 1503549.985 21740123.571 10 0 59386 8100.00000 0 11404097.915 3478973.491 22566416.413 10 0 59386 9000.00000 0 9620556.622 5642826.073 22955212.490 10 0 59386 9900.00000 0 7985220.128 7946102.896 22898917.973 10 0 59386 10800.00000 0 6537363.616 10331907.165 22398549.077 10 0 59386 11700.00000 0 5305577.913 12737610.651 21463718.423 10 0 59386 12600.00000 0 4306743.915 15097267.445 20112457.205 10 0 59386 13500.00000 0 3545509.804 17344181.992 18370875.825 10 0 59386 14400.00000 0 3014292.567 19413525.797 16272668.528 10 0 59386 15300.00000 0 2693803.643 21244894.525 13858470.513 10 0 59386 16200.00000 0 2554076.527 22784699.341 11175078.882 10 0 59386 17100.00000 0 2555953.148 23988292.656 8274551.500 10 0 59386 18000.00000 0 2652966.303 24821738.992 5213200.607 10 0 59386 18900.00000 0 2793538.532 25263156.266 2050500.314 10 0 59386 19800.00000 0 2923404.033 25303570.519 -1152070.890 10 0 59386 20700.00000 0 2988150.512 24947247.423 -4332229.651 10 0 59386 21600.00000 0 2935772.360 24211486.056 -7428105.432 10 0 59386 22500.00000 0 2719125.871 23125883.106 -10379451.811 10 0 59386 23400.00000 0 2298181.148 21731098.296 -13128826.840 10 0 59386 24300.00000 0 1641973.921 20077172.937 -15622718.601 10 0 59386 25200.00000 0 730173.208 18221472.580 -17812593.252 10 0 59386 26100.00000 0 -445802.817 16226340.588 -19655844.512 10 0 59386 27000.00000 0 -1882171.190 14156561.604 -21116625.755 10 0 59386 27900.00000 0 -3562695.919 12076741.655 -22166548.440 10 0 59386 28800.00000 0 -5459131.834 10048714.987 -22785233.328 10 0 59386 29700.00000 0 -7532182.803 8129086.212 -22960704.119 10 0 59386 30600.00000 0 -9732934.879 6367010.291 -22689616.204 10 0 59386 31500.00000 0 -12004704.885 4802302.693 -21977316.550 10 0 59386 32400.00000 0 -14285227.632 3463957.822 -20837733.968 10 0 59386 33300.00000 0 -16509090.714 2369136.447 -19293102.269 10 0 59386 34200.00000 0 -18610315.431 1522663.148 -17373522.004 10 0 59386 35100.00000 0 -20524976.299 917053.156 -15116369.555 10 0 59386 36000.00000 0 -22193750.014 533065.747 -12565565.252 10 0 59386 36900.00000 0 -23564287.560 340759.250 -9770714.979 10 0 59386 37800.00000 0 -24593310.689 301001.604 -6786142.175 10 0 59386 38700.00000 0 -25248345.488 367371.327 -3669829.263 10 0 59386 39600.00000 0 -25509021.019 488367.453 -482289.428 10 0 59386 40500.00000 0 -25367879.293 609834.060 2714609.063 10 0 59386 41400.00000 0 -24830663.383 677496.189 5858842.970 10 0 59386 42300.00000 0 -23916072.335 639499.465 8889435.079 10 0 59386 43200.00000 0 -22654993.846 448845.799 11747632.840 10 0 59386 44100.00000 0 -21089247.387 65622.122 14378042.004 10 0 59386 45000.00000 0 -19269890.752 -541071.954 16729693.620 10 0 59386 45900.00000 0 -17255160.927 -1391578.941 18757024.366 10 0 59386 46800.00000 0 -15108135.067 -2494586.045 20420752.033 10 0 59386 47700.00000 0 -12894208.704 -3846522.080 21688629.975 10 0 59386 48600.00000 0 -10678495.550 -5431474.808 22536066.821 10 0 59386 49500.00000 0 -8523256.142 -7221633.259 22946600.183 10 0 59386 50400.00000 0 -6485461.333 -9178237.886 22912215.640 10 0 59386 51300.00000 0 -4614590.840 -11253000.491 22433505.092 10 0 59386 52200.00000 0 -2950757.351 -13389936.445 21519661.251 10 0 59386 53100.00000 0 -1523233.425 -15527534.476 20188307.893 10 0 59386 54000.00000 0 -349441.733 -17601175.211 18465168.396 10 0 59386 54900.00000 0 565549.766 -19545698.990 16383577.904 10 0 59386 55800.00000 0 1229006.975 -21298016.731 13983847.513 10 0 59386 56700.00000 0 1659984.308 -22799655.398 11312491.624 10 0 59386 57600.00000 0 1888277.875 -23999131.800 8421332.463 10 0 59386 58500.00000 0 1952921.444 -24854054.970 5366498.435 10 0 59386 59400.00000 0 1900288.813 -25332868.445 2207335.364 10 0 59386 60300.00000 0 1781883.195 -25416158.420 -994748.360 10 0 59386 61200.00000 0 1651907.639 -25097471.860 -4177479.843 10 0 59386 62100.00000 0 1564720.247 -24383609.243 -7278939.089 10 0 59386 63000.00000 0 1572282.983 -23294378.794 -10238771.278 10 0 59386 63900.00000 0 1721713.387 -21861821.943 -12999369.255 10 0 59386 64800.00000 0 2053044.213 -20128942.257 -15507002.362 10 0 59386 65700.00000 0 2597287.205 -18147991.105 -17712868.832 10 0 59386 66600.00000 0 3374884.200 -15978382.212 -19574050.575 10 0 59386 67500.00000 0 4394612.237 -13684322.769 -21054351.426 10 0 59386 68400.00000 0 5652989.992 -11332260.610 -22125002.464 10 0 59386 69300.00000 0 7134211.465 -8988254.539 -22765220.705 10 0 59386 70200.00000 0 8810610.553 -6715377.783 -22962610.644 10 0 59386 71100.00000 0 10643637.667 -4571262.775 -22713401.226 10 0 59386 72000.00000 0 12585307.910 -2605889.422 -22022514.052 10 0 59386 72900.00000 0 14580060.557 -859708.293 -20903461.931 10 0 59386 73800.00000 0 16566952.297 637823.995 -19378080.120 10 0 59386 74700.00000 0 18482092.585 1869237.346 -17476095.784 10 0 59386 75600.00000 0 20261219.391 2829528.871 -15234544.301 10 0 59386 76500.00000 0 21842307.683 3526113.325 -12697043.939 10 0 59386 77400.00000 0 23168101.517 3978247.213 -9912943.258 10 0 59386 78300.00000 0 24188463.904 4215952.621 -6936358.034 10 0 59386 79200.00000 0 24862446.221 4278487.780 -3825116.643 10 0 59386 80100.00000 0 25159990.705 4212430.351 -639634.751 10 0 59386 81000.00000 0 25063195.077 4069455.595 2558258.537 10 0 59386 81900.00000 0 24567086.723 3903904.281 5706520.107 10 0 59386 82800.00000 0 23679874.446 3770243.761 8744094.278 10 0 59386 83700.00000 0 22422667.734 3720529.935 11612093.018 10 0 59386 84600.00000 0 20828675.618 3801977.540 14254932.256 10 0 59386 85500.00000 0 18941918.919 4054741.318 16621402.565 10 0 59387 0.00000 0 16815509.674 4510001.606 18665654.113 10 0 59387 900.00000 0 14509569.109 5188435.428 20348077.787 10 0 59387 1800.00000 0 12088870.839 6099136.317 21636065.684 10 0 59387 2700.00000 0 9620306.231 7239030.760 22504637.816 10 0 59387 3600.00000 0 7170276.384 8592814.322 22936923.189 10 0 59387 4500.00000 0 4802118.198 10133412.561 22924486.544 10 0 59387 5400.00000 0 2573670.041 11822948.175 22467494.715 10 0 59387 6300.00000 0 535076.996 13614175.702 21574719.252 10 0 59387 7200.00000 0 -1273074.116 15452325.355 20263374.776 10 0 59387 8100.00000 0 -2821213.332 17277280.627 18558795.450 10 0 59387 9000.00000 0 -4091779.743 19026000.119 16493954.753 10 0 59387 9900.00000 0 -5079706.368 20635083.416 14108836.806 10 0 59387 10800.00000 0 -5792377.857 22043374.425 11449670.240 10 0 59387 11700.00000 0 -6249063.079 23194493.430 8568038.440 10 0 59387 12600.00000 0 -6479846.629 24039191.490 5519882.743 10 0 59387 13500.00000 0 -6524104.545 24537427.779 2364417.473 10 0 59387 14400.00000 0 -6428588.922 24660081.715 -837022.197 10 0 59387 15300.00000 0 -6245202.880 24390226.713 -4022176.786 10 0 59387 16200.00000 0 -6028560.773 23723910.849 -7129079.591 10 0 59387 17100.00000 0 -5833437.886 22670410.442 -10097269.856 10 0 59387 18000.00000 0 -5712218.710 21251944.907 -12868977.367 10 0 59387 18900.00000 0 -5712453.080 19502864.178 -15390254.543 10 0 59387 19800.00000 0 -5874624.899 17468342.297 -17612033.166 10 0 59387 20700.00000 0 -6230229.025 15202631.842 -19491084.479 10 0 59387 21600.00000 0 -6800238.729 12766952.295 -20990863.636 10 0 59387 22500.00000 0 -7594029.418 10227100.797 -22082221.918 10 0 59387 23400.00000 0 -8608804.817 7650885.358 -22743972.925 10 0 59387 24300.00000 0 -9829550.420 5105487.714 -22963302.023 10 0 59387 25200.00000 0 -11229516.734 2654865.674 -22736011.498 10 0 59387 26100.00000 0 -12771212.313 357302.997 -22066597.047 10 0 59387 27000.00000 0 -14407865.201 -1736791.782 -20968154.587 10 0 59387 27900.00000 0 -16085291.632 -3586746.780 -19462119.562 10 0 59387 28800.00000 0 -17744093.685 -5163071.988 -17577844.119 10 0 59387 29700.00000 0 -19322093.787 -6448429.471 -15352020.666 10 0 59387 30600.00000 0 -20756904.010 -7438089.766 -12827963.157 10 0 59387 31500.00000 0 -21988522.339 -8139857.122 -10054760.368 10 0 59387 32400.00000 0 -22961847.021 -8573468.706 -7086317.803 10 0 59387 33300.00000 0 -23629003.521 -8769494.855 -3980307.081 10 0 59387 34200.00000 0 -23951386.478 -8767788.360 -797043.597 10 0 59387 35100.00000 0 -23901331.122 -8615549.685 2401685.507 10 0 59387 36000.00000 0 -23463344.196 -8365090.963 5553820.031 10 0 59387 36900.00000 0 -22634842.988 -8071394.078 8598228.605 10 0 59387 37800.00000 0 -21426371.731 -7789566.562 11475890.430 10 0 59387 38700.00000 0 -19861286.460 -7572303.047 14131034.201 10 0 59387 39600.00000 0 -17974921.578 -7467459.431 16512212.427 10 0 59387 40500.00000 0 -15813272.827 -7515841.993 18573290.978 10 0 59387 41400.00000 0 -13431251.203 -7749304.434 20274335.503 10 0 59387 42300.00000 0 -10890580.029 -8189232.796 21582378.301 10 0 59387 43200.00000 0 -8257421.756 -8845482.033 22472051.761 10 0 59387 44100.00000 0 -5599832.040 -9715809.153 22926076.805 10 0 59387 45000.00000 0 -2985145.634 -10785827.342 22935597.414 10 0 59387 45900.00000 0 -477401.227 -12029483.892 22500355.024 10 0 59387 46800.00000 0 1865089.223 -13410043.156 21628699.311 10 0 59387 47700.00000 0 3991926.903 -14881534.768 20337434.680 10 0 59387 48600.00000 0 5862478.524 -16390607.972 18651504.694 10 0 59387 49500.00000 0 7447318.509 -17878715.867 16603519.489 10 0 59387 50400.00000 0 8729201.422 -19284539.233 14233134.234 10 0 59387 51300.00000 0 9703524.540 -20546549.213 11586289.534 10 0 59387 52200.00000 0 10378261.531 -21605601.779 8714327.430 10 0 59387 53100.00000 0 10773370.208 -22407454.982 5672999.472 10 0 59387 54000.00000 0 10919699.552 -22905102.724 2521385.626 10 0 59387 54900.00000 0 10857442.351 -23060825.989 -679255.097 10 0 59387 55800.00000 0 10634199.232 -22847874.026 -3866679.576 10 0 59387 56700.00000 0 10302736.520 -22251703.375 -6978877.299 10 0 59387 57600.00000 0 9918533.622 -21270721.174 -9955284.364 10 0 59387 58500.00000 0 9537224.698 -19916500.184 -12737970.157 10 0 59387 59400.00000 0 9212044.032 -18213455.413 -15272772.648 10 0 59387 60300.00000 0 8991384.324 -16197995.006 -17510359.421 10 0 59387 61200.00000 0 8916572.307 -13917180.533 -19407193.064 10 0 59387 62100.00000 0 9019956.676 -11426952.417 -20926381.737 10 0 59387 63000.00000 0 9323389.936 -8789994.579 -22038398.264 10 0 59387 63900.00000 0 9837168.842 -6073327.549 -22721653.776 10 0 59387 64800.00000 0 10559478.571 -3345730.370 -22962915.054 10 0 59387 65700.00000 0 11476364.327 -675098.637 -22757557.861 10 0 59387 66600.00000 0 12562231.718 1874151.486 -22109651.737 10 0 59387 67500.00000 0 13780854.894 4243525.748 -21031875.081 10 0 59387 68400.00000 0 15086850.051 6382639.831 -19545262.529 10 0 59387 69300.00000 0 16427552.270 8251062.765 -17678789.875 10 0 59387 70200.00000 0 17745216.701 9819740.193 -15468804.849 10 0 59387 71100.00000 0 18979451.462 11071939.647 -12958315.037 10 0 59387 72000.00000 0 20069779.835 12003679.986 -10196147.007 10 0 59387 72900.00000 0 20958223.920 12623628.895 -7235993.229 10 0 59387 73800.00000 0 21591801.017 12952474.633 -4135365.518 10 0 59387 74700.00000 0 21924827.704 13021800.203 -954475.734 10 0 59387 75600.00000 0 21920934.709 12872509.019 2244934.301 10 0 59387 76500.00000 0 21554707.930 12552869.813 5400790.670 10 0 59387 77400.00000 0 20812886.716 12116264.320 8451889.562 10 0 59387 78300.00000 0 19695069.149 11618733.575 11339080.464 10 0 59387 79200.00000 0 18213894.749 11116426.751 14006407.628 10 0 59387 80100.00000 0 16394696.828 10663060.287 16402187.971 10 0 59387 81000.00000 0 14274638.759 10307494.264 18480005.185 10 0 59387 81900.00000 0 11901369.664 10091527.840 20199601.550 10 0 59387 82800.00000 0 9331254.886 10048006.154 21527651.008 10 0 59387 83700.00000 0 6627253.874 10199317.994 22438399.394 10 0 59387 84600.00000 0 3856532.455 10556347.220 22914160.236 10 0 59387 85500.00000 0 1087907.353 11117922.074 22945657.007 99